loading
|

SL-8 R/B, 2802

Orbit data source: Space-Track

SL-8 R/B, 2802 is space debris in LEO originally from a launch on Mon, 15 May 1967 UTC launched from the Plesetsk Missile And Space Complex (PKMTR). Debris objects in space refer to the collection of defunct objects orbiting the Earth. Examples of debris include non-operational satellites, rocket bodies, and fragments generated from explosions, collisions, or faulty payload assembly.

Loading next visibility...
Loading greatness...
SL-8 R/B details
Identifier
2802, 1967-045B
Orbit
LEO
Last TLE update14 hours ago
Origin
Flag of CISRVSN (CIS)
ManufacturerYuzhnoe
MissionSpacecraft
Bus & MotorS3, Unknown motor
Mass1,434 kg wet, 1,434 kg dry
Launch date (UTC)
1967-05-15 (57 years ago)
Launch vehicleUnknown
Launch site
Plesetsk Missile And Space Complex (PKMTR)
Object type
Payload
Rocket body
Debris
Shape & HBRCyl, 4.2 m
Radar Cross Section10.179 m², Large (>1 m²)

Expand to show TLE details & history

TLE from 14 hours ago
0 SL-8 R/B
1  2802U 67045B   24281.15111551  .00002901  00000-0  81898-3 0  9990
2  2802  74.0122 236.0528 0064958   7.0690 353.1367 14.44918878 14209
Epoch: 2024-10-07T03:37Z
Definitive object data (Epoch: 2024-10-07T03:37:36.38Z)
Latitude-0.00001°
Longitude165.36837°
Altitude698.988 km
Speed7.531 km/s
True Right ascension15h 44m 12s
True Declination0° 00' 00"
Sunlit
Object was in daylight at TLE epoch
Predictive object data (real-time)
Latitude49.7678°
Longitude-175.99849°
Altitude717.881 km
Speed7.518 km/s
Apparent Right ascension20h 15m 35s
Apparent Declination11° 35' 35"
Sunlit
Object is in daylight
Predictive observer data (real-time)
Local Sidereal Time11:16:24
Azimuth49.343° ENE
Elevation-23.605°
Doppler factor1
Orbital elements
Apogee786.146 km
Perigee693.671 km
Semi-major axis7,118.046 km
Eccentricity0.0064958
Inclination74.0122°
RAAN236.0528°
Arg. of periapsis7.069°
True anomaly353.04703°
Mean anomaly353.1367°
Eccentric anomaly353.09194°
Mean motion3.61412 °/min
BSTAR0.00081898
Period99.61 mins
No data available
No data available
Other satellites on launch #45 in the year 1967 (1967-05-15 UTC)

SL-8 R/B Visibility forecast

Observer location: 39.9160978°, -105.1181434

SL-8 R/B is not visible in the next 10 days
Span
Click to sort rows by Start time (UTC) header in descending order
Start Az.
Max El. time (UTC)
Max El. Az.
Max El.
End time (UTC)
End Az.